Pratham (41783 NORAD) Tracking and Keplerian Element Data

This shows tracking and keplerian element data for the satellite.

Feedback or suggestion? Click here.




ElementValue
Catalog41783
NamePratham
Epoch Orbit11414
Epoch Day319.90856287
Epoch Year2018
RAAN18.8689
Inclination98.0996
Eccentricity0.0033066
Argument of Perigee341.2947
Mean Anonmoly18.7037
Mean Motion14.6295541
Decay Rate5E-07
L11 41783U 16059A 18319.90856287 .00000050 00000-0 19050-4 0 9995
L22 41783 98.0996 18.8689 0033066 341.2947 18.7037 14.62955410114148

Live tracking and technical data element details for Pratham (NORAD 41783). Pratham can be tracked NOW for your location showing map with azimuth and elevation plus other details from your city location.

Track the satellite on the map from your city or location and see movement details for azimuth, elevation, latitude, longitude, range, height, and movement on the map or in text.







IsCatalogInMostPopularTable: catalog: 41783, numindb: 128
Update: records affected: 1



GetName: 41783 Pratham

Hit Count: updated at: Mon, 19 Nov 2018 11:45:25 GMT